Regional Weather Roundup
Issued by NWS Charleston, WV

Home | Current Version | Previous Version | Graphics & Text | Print | Product List | Glossary On
Versions: 1 2 3 4 5 6 7 8 9 10 11 12 13 14 15 16 17 18 19 20 21 22 23 24 25 26 27
000
ASUS41 KRLX 220110
RWRRLX
West Virginia Regional Weather Roundup
National Weather Service Charleston WV
900 PM EDT TUE OCT 21 2014

Note: "fair" indicates few or no clouds below 12,000 feet with no
significant weather and/or obstructions to visibility.

WVZ003-220200-
Northern Panhandle of West Virginia

CITY           SKY/WX    TMP DP  RH WIND       PRES   REMARKS
WHEELING       CLOUDY    47  43  86 NW9       30.02R
$$

WVZ009-220200-
Northwest West Virginia

CITY           SKY/WX    TMP DP  RH WIND       PRES   REMARKS
PARKERSBURG    CLOUDY    48  43  82 NW7       30.09R
$$

WVZ006-220200-
Western West Virginia

CITY           SKY/WX    TMP DP  RH WIND       PRES   REMARKS
HUNTINGTON     LGT RAIN  48  43  82 N8        30.09R
$$

WVZ015-220200-
West Central West Virginia

CITY           SKY/WX    TMP DP  RH WIND       PRES   REMARKS
CHARLESTON     LGT RAIN  48  44  86 NW14G22   30.06R FOG
$$

WVZ022-031-220200-
North Central West Virginia

CITY           SKY/WX    TMP DP  RH WIND       PRES   REMARKS
CLARKSBURG     CLOUDY    48  44  86 NW9       30.01R
MORGANTOWN     CLOUDY    50  44  80 VRB3      30.01R
$$

WVZ025-035-042-045-220200-
Southern West Virginia

CITY           SKY/WX    TMP DP  RH WIND       PRES   REMARKS
BECKLEY        LGT RAIN  43  40  89 NW9       30.03R
LOGAN          CLOUDY    48  41  76 CALM      30.06S
BLUEFIELD      LGT RAIN  45  38  76 NW14      30.03S
LEWISBURG      CLOUDY    46  40  78 W3        30.00R
$$

WVZ047-220200-
Northern Mountains of West Virginia

CITY           SKY/WX    TMP DP  RH WIND       PRES   REMARKS
ELKINS         LGT RAIN  46  44  93 NW8       29.99R
$$

WVZ052-220200-
Eastern Panhandle of West Virginia

CITY           SKY/WX    TMP DP  RH WIND       PRES   REMARKS
MARTINSBURG    CLOUDY    52  47  83 CALM      29.92R
PETERSBURG     CLOUDY   N/A N/A N/A CALM      29.96R
$$



USA.gov is the U.S. government's official web portal to all federal, state and local government web resources and services.